,,,PA_Meas_PMT16A,,PR_Meas_QMR101_102,,RH_Meas_QMH101,,SR_Meas_QMS101,,TA_Meas_QMH101,,GenWind,,GenWind,
date,time,status,PA,status,PR,status,RH,status,SR,status,TA,status,DirAvg,status,SpdAvg,
2012-02-01, 00:00:05,VALID,1010.51,VALID,0,VALID,104,VALID,0,VALID,22.5818,VALID,86,VALID,1.0207,
2012-02-01, 00:01:05,VALID,1010.54,VALID,0,VALID,104,VALID,0,VALID,22.603,VALID,62,VALID,0.732422,
2012-02-01, 00:02:05,VALID,1010.53,VALID,0,VALID,104,VALID,0,VALID,22.564,VALID,66,VALID,1.07891,
2012-02-01, 00:03:05,VALID,1010.53,VALID,0,VALID,104,VALID,0,VALID,22.564,VALID,52,VALID,0.837891,
2012-02-01, 00:04:05,VALID,1010.52,VALID,0,VALID,104,VALID,0,VALID,22.564,VALID,36,VALID,0.967578,
2012-02-01, 00:05:05,VALID,1010.52,VALID,0,VALID,104,VALID,0,VALID,22.564,VALID,10,VALID,0.319922,
2012-02-01, 00:06:05,VALID,1010.49,VALID,0,VALID,104,VALID,0,VALID,22.5446,VALID,14,VALID,0.950781,
2012-02-01, 00:07:05,VALID,1010.46,VALID,0,VALID,104,VALID,0.112112,VALID,22.5056,VALID,53,VALID,1.02617,
2012-02-01, 00:08:05,VALID,1010.45,VALID,0,VALID,104,VALID,0,VALID,22.4861,VALID,75,VALID,1.02422,
2012-02-01, 00:09:05,VALID,1010.43,VALID,0,VALID,104,VALID,0,VALID,22.4861,VALID,72,VALID,0.687109,
2012-02-01, 00:10:05,VALID,1010.42,VALID,0,VALID,104,VALID,0,VALID,22.4861,VALID,40,VALID,1.19531,
2012-02-01, 00:11:05,VALID,1010.4,VALID,0,VALID,104,VALID,0,VALID,22.4472,VALID,85,VALID,1.11094,
2012-02-01, 00:12:05,VALID,1010.39,VALID,0,VALID,104,VALID,0,VALID,22.4472,VALID,47,VALID,0.735156,
2012-02-01, 00:13:05,VALID,1010.36,VALID,0,VALID,104,VALID,0,VALID,22.4667,VALID,43,VALID,1.03437,
2012-02-01, 00:14:05,VALID,1010.35,VALID,0,VALID,104,VALID,0,VALID,22.4277,VALID,15,VALID,1.05234,
2012-02-01, 00:15:05,VALID,1010.34,VALID,0,VALID,104,VALID,0,VALID,22.4277,VALID,33,VALID,0.951172,
2012-02-01, 00:16:05,VALID,1010.3,VALID,0,VALID,104,VALID,0.112112,VALID,22.4082,VALID,29,VALID,0.687109,
2012-02-01, 00:17:05,VALID,1010.25,VALID,0,VALID,104,VALID,0,VALID,22.3887,VALID,26,VALID,0.445313,
2012-02-01, 00:18:05,VALID,1010.24,VALID,0,VALID,104,VALID,0,VALID,22.3887,VALID,26,VALID,0.551172,
2012-02-01, 00:19:05,VALID,1010.19,VALID,0,VALID,104,VALID,0.112112,VALID,22.3498,VALID,46,VALID,1.32969,
2012-02-01, 00:20:05,VALID,1010.18,VALID,0,VALID,104,VALID,0,VALID,22.3498,VALID,26,VALID,1.4,
2012-02-01, 00:21:05,VALID,1010.14,VALID,0,VALID,104,VALID,0,VALID,22.3108,VALID,33,VALID,0.830078,
2012-02-01, 00:22:05,VALID,1010.14,VALID,0,VALID,104,VALID,0,VALID,22.3108,VALID,50,VALID,1.12656,
2012-02-01, 00:23:05,VALID,1010.19,VALID,0,VALID,104,VALID,0,VALID,22.3108,VALID,52,VALID,0.695703,
2012-02-01, 00:24:05,VALID,1010.2,VALID,0,VALID,104,VALID,0,VALID,22.332,VALID,52,VALID,0.0078125,
2012-02-01, 00:25:05,VALID,1010.19,VALID,0,VALID,104,VALID,0,VALID,22.3108,VALID,18,VALID,0.745313,
2012-02-01, 00:26:05,VALID,1010.18,VALID,0,VALID,104,VALID,0,VALID,22.3108,VALID,56,VALID,0.73125,
2012-02-01, 00:27:05,VALID,1010.18,VALID,0,VALID,104,VALID,0,VALID,22.3108,VALID,26,VALID,0.536328,
2012-02-01, 00:28:05,VALID,1010.14,VALID,0,VALID,104,VALID,0,VALID,22.2702,VALID,65,VALID,0.807422,
2012-02-01, 00:29:05,VALID,1010.17,VALID,0,VALID,104,VALID,0,VALID,22.2719,VALID,67,VALID,0.530078,
2012-02-01, 00:30:05,VALID,1010.15,VALID,0,VALID,104,VALID,0,VALID,22.2719,VALID,82,VALID,0.603906,
2012-02-01, 00:31:05,VALID,1010.15,VALID,0,VALID,104,VALID,0,VALID,22.2719,VALID,54,VALID,1.31367,
2012-02-01, 00:32:05,VALID,1010.14,VALID,0,VALID,104,VALID,0,VALID,22.2524,VALID,38,VALID,0.689844,
2012-02-01, 00:33:05,VALID,1010.2,VALID,0,VALID,104,VALID,0,VALID,22.2524,VALID,28,VALID,0.705078,
2012-02-01, 00:34:05,VALID,1010.19,VALID,0,VALID,104,VALID,0,VALID,22.2719,VALID,53,VALID,0.736719,
2012-02-01, 00:35:05,VALID,1010.2,VALID,0,VALID,104,VALID,0,VALID,22.2524,VALID,65,VALID,1.16797,
2012-02-01, 00:36:05,VALID,1010.21,VALID,0,VALID,104,VALID,0,VALID,22.2524,VALID,27,VALID,0.691406,
2012-02-01, 00:37:05,VALID,1010.23,VALID,0,VALID,104,VALID,0,VALID,22.2524,VALID,30,VALID,0.658594,
2012-02-01, 00:38:05,VALID,1010.22,VALID,0,VALID,104,VALID,0,VALID,22.2524,VALID,58,VALID,0.817578,
2012-02-01, 00:39:05,VALID,1010.23,VALID,0,VALID,104,VALID,0,VALID,22.2719,VALID,61,VALID,0.815234,
2012-02-01, 00:40:05,VALID,1010.27,VALID,0,VALID,104,VALID,0,VALID,22.2719,VALID,73,VALID,0.920313,
2012-02-01, 00:41:05,VALID,1010.27,VALID,0,VALID,104,VALID,0,VALID,22.2719,VALID,97,VALID,1.07773,
2012-02-01, 00:42:05,VALID,1010.28,VALID,0,VALID,104,VALID,0.112112,VALID,22.2507,VALID,62,VALID,0.889844,
2012-02-01, 00:43:05,VALID,1010.33,VALID,0,VALID,104,VALID,0,VALID,22.2914,VALID,62,VALID,0.692578,
2012-02-01, 00:44:05,VALID,1010.32,VALID,0,VALID,104,VALID,0,VALID,22.2719,VALID,59,VALID,0.991016,
2012-02-01, 00:45:05,VALID,1010.35,VALID,0,VALID,104,VALID,0,VALID,22.2719,VALID,59,VALID,1.11563,
2012-02-01, 00:46:05,VALID,1010.32,VALID,0,VALID,104,VALID,0,VALID,22.2524,VALID,55,VALID,0.560156,
2012-02-01, 00:47:05,VALID,1010.3,VALID,0,VALID,104,VALID,0.112112,VALID,22.2507,VALID,67,VALID,0.886719,
2012-02-01, 00:48:05,VALID,1010.3,VALID,0,VALID,104,VALID,0,VALID,22.2507,VALID,42,VALID,1.05117,
2012-02-01, 00:49:05,VALID,1010.29,VALID,0,VALID,104,VALID,0.112112,VALID,22.2719,VALID,43,VALID,0.719922,
2012-02-01, 00:50:05,VALID,1010.3,VALID,0,VALID,104,VALID,0.112112,VALID,22.2524,VALID,36,VALID,0.472656,
2012-02-01, 00:51:05,VALID,1010.29,VALID,0,VALID,104,VALID,0.112112,VALID,22.2524,VALID,36,VALID,0.848437,
2012-02-01, 00:52:05,VALID,1010.29,VALID,0,VALID,104,VALID,0.112112,VALID,22.2524,VALID,49,VALID,0.658203,
2012-02-01, 00:53:05,VALID,1010.28,VALID,0,VALID,104,VALID,0,VALID,22.2719,VALID,60,VALID,0.401172,
2012-02-01, 00:54:05,VALID,1010.26,VALID,0,VALID,104,VALID,0,VALID,22.3108,VALID,42,VALID,0.638672,
2012-02-01, 00:55:05,VALID,1010.24,VALID,0,VALID,104,VALID,0,VALID,22.3108,VALID,42,VALID,0.507422,
2012-02-01, 00:56:05,VALID,1010.24,VALID,0,VALID,104,VALID,0,VALID,22.2719,VALID,84,VALID,1.14375,
2012-02-01, 00:57:05,VALID,1010.27,VALID,0,VALID,104,VALID,0,VALID,22.2914,VALID,81,VALID,0.662891,
2012-02-01, 00:58:05,VALID,1010.27,VALID,0,VALID,104,VALID,0,VALID,22.2702,VALID,89,VALID,1.02148,
2012-02-01, 00:59:05,VALID,1010.27,VALID,0,VALID,104,VALID,0,VALID,22.2914,VALID,85,VALID,0.814844,
2012-02-01, 01:00:05,VALID,1010.27,VALID,0,VALID,104,VALID,0.112112,VALID,22.2719,VALID,97,VALID,0.789844,
2012-02-01, 01:01:05,VALID,1010.25,VALID,0,VALID,104,VALID,0,VALID,22.2702,VALID,87,VALID,0.698828,
2012-02-01, 01:02:05,VALID,1010.24,VALID,0,VALID,104,VALID,0,VALID,22.2524,VALID,85,VALID,0.627734,
2012-02-01, 01:03:05,VALID,1010.27,VALID,0,VALID,104,VALID,0.112112,VALID,22.2507,VALID,82,VALID,0.932422,
2012-02-01, 01:04:05,VALID,1010.25,VALID,0,VALID,104,VALID,0,VALID,22.2312,VALID,78,VALID,0.529688,
2012-02-01, 01:05:05,VALID,1010.27,VALID,0,VALID,104,VALID,0,VALID,22.2914,VALID,78,VALID,0.475781,
2012-02-01, 01:06:05,VALID,1010.26,VALID,0,VALID,104,VALID,0,VALID,22.2914,VALID,78,VALID,0.256641,
2012-02-01, 01:07:05,VALID,1010.24,VALID,0,VALID,104,VALID,0.112112,VALID,22.2702,VALID,78,VALID,0.439453,
2012-02-01, 01:08:05,VALID,1010.22,VALID,0,VALID,104,VALID,0,VALID,22.2719,VALID,78,VALID,0.263281,
2012-02-01, 01:09:05,VALID,1010.2,VALID,0,VALID,104,VALID,0,VALID,22.2524,VALID,78,VALID,0,
2012-02-01, 01:10:05,VALID,1010.2,VALID,0,VALID,104,VALID,0.112112,VALID,22.2719,VALID,78,VALID,0.0269531,
2012-02-01, 01:11:05,VALID,1010.15,VALID,0,VALID,104,VALID,0,VALID,22.2312,VALID,78,VALID,0,
2012-02-01, 01:12:05,VALID,1010.18,VALID,0,VALID,104,VALID,0,VALID,22.2524,VALID,78,VALID,0.591797,
2012-02-01, 01:13:05,VALID,1010.11,VALID,0,VALID,104,VALID,0,VALID,22.2329,VALID,78,VALID,0.323047,
2012-02-01, 01:14:05,VALID,1010.12,VALID,0,VALID,104,VALID,0,VALID,22.2524,VALID,76,VALID,0.617969,
2012-02-01, 01:15:05,VALID,1010.1,VALID,0,VALID,104,VALID,0,VALID,22.2524,VALID,72,VALID,0.641406,
2012-02-01, 01:16:05,VALID,1010.08,VALID,0,VALID,104,VALID,0,VALID,22.2524,VALID,73,VALID,0.780469,
2012-02-01, 01:17:05,VALID,1010.05,VALID,0,VALID,104,VALID,0,VALID,22.2329,VALID,88,VALID,0.830078,
2012-02-01, 01:18:05,VALID,1010.03,VALID,0,VALID,104,VALID,0,VALID,22.2524,VALID,98,VALID,0.854297,
2012-02-01, 01:19:05,VALID,1010.02,VALID,0,VALID,104,VALID,0,VALID,22.2329,VALID,94,VALID,0.777734,
2012-02-01, 01:20:05,VALID,1009.98,VALID,0,VALID,104,VALID,0,VALID,22.2329,VALID,92,VALID,0.841797,
2012-02-01, 01:21:05,VALID,1009.94,VALID,0,VALID,104,VALID,0.112112,VALID,22.2524,VALID,128,VALID,1.03828,
2012-02-01, 01:22:05,VALID,1009.94,VALID,0,VALID,104,VALID,0,VALID,22.2329,VALID,129,VALID,1.2625,
2012-02-01, 01:23:05,VALID,1009.9,VALID,0,VALID,104,VALID,0,VALID,22.2524,VALID,129,VALID,1.13828,
2012-02-01, 01:24:05,VALID,1009.9,VALID,0,VALID,104,VALID,0,VALID,22.2524,VALID,130,VALID,0.883203,
2012-02-01, 01:25:05,VALID,1009.89,VALID,0,VALID,104,VALID,0.112112,VALID,22.2524,VALID,152,VALID,0.745313,
2012-02-01, 01:26:05,VALID,1009.88,VALID,0,VALID,104,VALID,0,VALID,22.2329,VALID,154,VALID,0.902344,
2012-02-01, 01:27:05,VALID,1009.87,VALID,0,VALID,104,VALID,0,VALID,22.2134,VALID,146,VALID,0.871094,
2012-02-01, 01:28:05,VALID,1009.85,VALID,0,VALID,104,VALID,0,VALID,22.2134,VALID,110,VALID,0.857031,
2012-02-01, 01:29:05,VALID,1009.86,VALID,0,VALID,104,VALID,0,VALID,22.2134,VALID,119,VALID,0.59375,
2012-02-01, 01:30:05,VALID,1009.84,VALID,0,VALID,104,VALID,0,VALID,22.2329,VALID,138,VALID,0.535547,
2012-02-01, 01:31:05,VALID,1009.85,VALID,0,VALID,104,VALID,0,VALID,22.2541,VALID,117,VALID,0.317578,
2012-02-01, 01:32:05,VALID,1009.83,VALID,0,VALID,104,VALID,0,VALID,22.2134,VALID,115,VALID,0.771484,
2012-02-01, 01:33:05,VALID,1009.83,VALID,0,VALID,104,VALID,0,VALID,22.2329,VALID,116,VALID,0.59375,
2012-02-01, 01:34:05,VALID,1009.81,VALID,0,VALID,104,VALID,0.112112,VALID,22.2329,VALID,119,VALID,0.905469,
2012-02-01, 01:35:05,VALID,1009.78,VALID,0,VALID,104,VALID,0.112112,VALID,22.2134,VALID,130,VALID,1.1418,
2012-02-01, 01:36:05,VALID,1009.8,VALID,0,VALID,104,VALID,0,VALID,22.194,VALID,135,VALID,1.47891,
2012-02-01, 01:37:05,VALID,1009.81,VALID,0,VALID,104,VALID,0.112112,VALID,22.1745,VALID,131,VALID,1.52773,
2012-02-01, 01:38:05,VALID,1009.84,VALID,0,VALID,104,VALID,0,VALID,22.1339,VALID,128,VALID,1.00586,
2012-02-01, 01:39:05,VALID,1009.84,VALID,0,VALID,104,VALID,0,VALID,22.155,VALID,124,VALID,0.909375,
2012-02-01, 01:40:05,VALID,1009.82,VALID,0,VALID,104,VALID,0,VALID,22.1745,VALID,109,VALID,0.925391,
2012-02-01, 01:41:05,VALID,1009.8,VALID,0,VALID,104,VALID,0.112112,VALID,22.155,VALID,109,VALID,0.691016,
2012-02-01, 01:42:05,VALID,1009.8,VALID,0,VALID,104,VALID,0,VALID,22.1355,VALID,107,VALID,0.892187,
2012-02-01, 01:43:05,VALID,1009.77,VALID,0,VALID,104,VALID,0,VALID,22.1355,VALID,115,VALID,0.731641,
2012-02-01, 01:44:05,VALID,1009.75,VALID,0,VALID,104,VALID,0,VALID,22.0966,VALID,124,VALID,1.26133,
2012-02-01, 01:45:05,VALID,1009.74,VALID,0,VALID,104,VALID,0,VALID,22.0771,VALID,139,VALID,0.869922,
2012-02-01, 01:46:05,VALID,1009.7,VALID,0,VALID,104,VALID,0,VALID,22.0771,VALID,116,VALID,1.12266,
2012-02-01, 01:47:05,VALID,1009.67,VALID,0,VALID,104,VALID,0,VALID,22.0949,VALID,115,VALID,0.70625,
2012-02-01, 01:48:05,VALID,1009.64,VALID,0,VALID,104,VALID,0,VALID,22.0966,VALID,113,VALID,0.485547,
2012-02-01, 01:49:05,VALID,1009.61,VALID,0,VALID,104,VALID,0,VALID,22.1144,VALID,114,VALID,0.507031,
2012-02-01, 01:50:05,VALID,1009.61,VALID,0,VALID,104,VALID,0,VALID,22.0949,VALID,114,VALID,0.339063,
2012-02-01, 01:51:05,VALID,1009.61,VALID,0,VALID,104,VALID,0,VALID,22.1355,VALID,114,VALID,0.140625,
2012-02-01, 01:52:05,VALID,1009.6,VALID,0,VALID,104,VALID,0,VALID,22.1355,VALID,114,VALID,0.0429688,
2012-02-01, 01:53:05,VALID,1009.56,VALID,0,VALID,104,VALID,0,VALID,22.1355,VALID,114,VALID,0.419922,
2012-02-01, 01:54:05,VALID,1009.55,VALID,0,VALID,104,VALID,0,VALID,22.1161,VALID,112,VALID,1.03945,
2012-02-01, 01:55:05,VALID,1009.54,VALID,0,VALID,104,VALID,0,VALID,22.0771,VALID,108,VALID,0.984766,
2012-02-01, 01:56:05,VALID,1009.54,VALID,0,VALID,104,VALID,0,VALID,22.0771,VALID,143,VALID,0.931641,
2012-02-01, 01:57:05,VALID,1009.53,VALID,0,VALID,104,VALID,0,VALID,22.0771,VALID,141,VALID,0.783203,
2012-02-01, 01:58:05,VALID,1009.47,VALID,0,VALID,104,VALID,0,VALID,22.0576,VALID,122,VALID,1.10938,
2012-02-01, 01:59:05,VALID,1009.43,VALID,0,VALID,104,VALID,0,VALID,22.0576,VALID,122,VALID,0.855469,
2012-02-01, 02:00:05,VALID,1009.4,VALID,0,VALID,104,VALID,0,VALID,22.056,VALID,122,VALID,0.521094,
2012-02-01, 02:01:05,VALID,1009.37,VALID,0,VALID,104,VALID,0,VALID,22.0966,VALID,124,VALID,0.667578,
2012-02-01, 02:02:05,VALID,1009.33,VALID,0,VALID,104,VALID,0,VALID,22.0966,VALID,124,VALID,0.511328,
2012-02-01, 02:03:05,VALID,1009.3,VALID,0,VALID,104,VALID,0,VALID,22.0966,VALID,123,VALID,0.733984,
2012-02-01, 02:04:05,VALID,1009.3,VALID,0,VALID,104,VALID,0,VALID,22.0966,VALID,123,VALID,0.343359,
2012-02-01, 02:05:05,VALID,1009.27,VALID,0,VALID,104,VALID,0,VALID,22.1161,VALID,125,VALID,0.921484,
2012-02-01, 02:06:05,VALID,1009.27,VALID,0,VALID,104,VALID,0,VALID,22.0771,VALID,126,VALID,1.03516,
2012-02-01, 02:07:05,VALID,1009.25,VALID,0,VALID,104,VALID,0,VALID,22.0966,VALID,132,VALID,0.580469,
2012-02-01, 02:08:05,VALID,1009.26,VALID,0,VALID,104,VALID,0,VALID,22.0966,VALID,133,VALID,1.0332,
2012-02-01, 02:09:05,VALID,1009.28,VALID,0,VALID,104,VALID,0,VALID,22.0771,VALID,139,VALID,1.09453,
2012-02-01, 02:10:05,VALID,1009.32,VALID,0,VALID,104,VALID,0,VALID,22.0966,VALID,149,VALID,1.03711,
2012-02-01, 02:11:05,VALID,1009.33,VALID,0,VALID,104,VALID,0,VALID,22.0966,VALID,141,VALID,1.27227,
2012-02-01, 02:12:05,VALID,1009.32,VALID,0,VALID,104,VALID,0,VALID,22.0771,VALID,136,VALID,1.17422,
2012-02-01, 02:13:05,VALID,1009.33,VALID,0,VALID,104,VALID,0,VALID,22.0771,VALID,149,VALID,0.844141,
2012-02-01, 02:14:05,VALID,1009.32,VALID,0,VALID,104,VALID,0,VALID,22.0576,VALID,129,VALID,1.10859,
2012-02-01, 02:15:05,VALID,1009.3,VALID,0,VALID,104,VALID,0,VALID,22.0576,VALID,133,VALID,0.531641,
2012-02-01, 02:16:05,VALID,1009.3,VALID,0,VALID,104,VALID,0,VALID,21.9992,VALID,104,VALID,1.50469,
2012-02-01, 02:17:05,VALID,1009.29,VALID,0,VALID,104,VALID,0,VALID,22.0187,VALID,117,VALID,0.828516,
2012-02-01, 02:18:05,VALID,1009.29,VALID,0,VALID,104,VALID,0,VALID,21.9992,VALID,94,VALID,0.644922,
2012-02-01, 02:19:05,VALID,1009.27,VALID,0,VALID,104,VALID,0,VALID,22.0187,VALID,116,VALID,1.10234,
2012-02-01, 02:20:05,VALID,1009.27,VALID,0,VALID,104,VALID,0,VALID,22.0382,VALID,117,VALID,0.973437,
2012-02-01, 02:21:05,VALID,1009.29,VALID,0,VALID,104,VALID,0,VALID,22.0576,VALID,118,VALID,1.07578,
2012-02-01, 02:22:05,VALID,1009.29,VALID,0,VALID,104,VALID,0,VALID,22.0983,VALID,124,VALID,0.866406,
2012-02-01, 02:23:05,VALID,1009.28,VALID,0,VALID,104,VALID,0,VALID,22.0771,VALID,108,VALID,1.07187,
2012-02-01, 02:24:05,VALID,1009.26,VALID,0,VALID,104,VALID,0,VALID,22.0771,VALID,116,VALID,1.14531,
2012-02-01, 02:25:05,VALID,1009.26,VALID,0,VALID,104,VALID,0,VALID,22.0966,VALID,120,VALID,0.880078,
2012-02-01, 02:26:05,VALID,1009.22,VALID,0,VALID,104,VALID,0,VALID,22.0966,VALID,120,VALID,0.358594,
2012-02-01, 02:27:05,VALID,1009.22,VALID,0,VALID,104,VALID,0,VALID,22.0771,VALID,81,VALID,0.456641,
2012-02-01, 02:28:05,VALID,1009.2,VALID,0,VALID,104,VALID,0,VALID,22.0966,VALID,91,VALID,0.796484,
2012-02-01, 02:29:05,VALID,1009.19,VALID,0,VALID,104,VALID,0,VALID,22.0966,VALID,92,VALID,0.386328,
2012-02-01, 02:30:05,VALID,1009.18,VALID,0,VALID,104,VALID,0,VALID,22.0788,VALID,94,VALID,0.770703,
2012-02-01, 02:31:05,VALID,1009.15,VALID,0,VALID,104,VALID,0,VALID,22.0771,VALID,144,VALID,0.620703,
2012-02-01, 02:32:05,VALID,1009.17,VALID,0,VALID,104,VALID,0,VALID,22.0966,VALID,103,VALID,1.09063,
2012-02-01, 02:33:05,VALID,1009.16,VALID,0,VALID,104,VALID,0,VALID,22.1161,VALID,127,VALID,0.923047,
2012-02-01, 02:34:04,VALID,1009.18,VALID,0,VALID,104,VALID,0,VALID,22.1161,VALID,131,VALID,1.30313,
2012-02-01, 02:35:04,VALID,1009.21,VALID,0,VALID,104,VALID,0,VALID,22.155,VALID,128,VALID,1.03789,
2012-02-01, 02:36:04,VALID,1009.24,VALID,0,VALID,104,VALID,0,VALID,22.155,VALID,139,VALID,1.31094,
2012-02-01, 02:37:04,VALID,1009.26,VALID,0,VALID,104,VALID,0,VALID,22.1355,VALID,111,VALID,0.939844,
2012-02-01, 02:38:04,VALID,1009.26,VALID,0,VALID,104,VALID,0,VALID,22.1339,VALID,121,VALID,0.911719,
2012-02-01, 02:39:04,VALID,1009.25,VALID,0,VALID,104,VALID,0,VALID,22.0949,VALID,113,VALID,0.984766,
2012-02-01, 02:40:04,VALID,1009.24,VALID,0,VALID,104,VALID,0,VALID,22.1161,VALID,107,VALID,0.463281,
2012-02-01, 02:41:04,VALID,1009.23,VALID,0,VALID,104,VALID,0,VALID,22.0966,VALID,127,VALID,0.605078,
2012-02-01, 02:42:04,VALID,1009.24,VALID,0,VALID,104,VALID,0,VALID,22.0771,VALID,158,VALID,1.2082,
2012-02-01, 02:43:04,VALID,1009.23,VALID,0,VALID,104,VALID,0,VALID,22.0966,VALID,152,VALID,1.05039,
2012-02-01, 02:44:04,VALID,1009.23,VALID,0,VALID,104,VALID,0,VALID,22.0771,VALID,144,VALID,0.599219,
2012-02-01, 02:45:04,VALID,1009.18,VALID,0,VALID,104,VALID,0,VALID,22.0771,VALID,166,VALID,0.619922,
2012-02-01, 02:46:04,VALID,1009.19,VALID,0,VALID,104,VALID,0,VALID,22.0771,VALID,141,VALID,0.479688,
2012-02-01, 02:47:04,VALID,1009.13,VALID,0,VALID,104,VALID,0,VALID,22.0771,VALID,141,VALID,0.396484,
2012-02-01, 02:48:04,VALID,1009.13,VALID,0,VALID,104,VALID,0,VALID,22.0771,VALID,138,VALID,0.927344,
2012-02-01, 02:49:04,VALID,1009.12,VALID,0,VALID,104,VALID,0,VALID,22.0576,VALID,130,VALID,0.910547,
2012-02-01, 02:50:04,VALID,1009.13,VALID,0,VALID,104,VALID,0,VALID,22.0771,VALID,132,VALID,1.07539,
2012-02-01, 02:51:04,VALID,1009.14,VALID,0,VALID,104,VALID,0,VALID,22.0771,VALID,133,VALID,0.654297,
2012-02-01, 02:52:04,VALID,1009.14,VALID,0,VALID,104,VALID,0,VALID,22.0771,VALID,137,VALID,0.347266,
2012-02-01, 02:53:04,VALID,1009.17,VALID,0,VALID,104,VALID,0,VALID,22.0576,VALID,164,VALID,1.28477,
2012-02-01, 02:54:04,VALID,1009.14,VALID,0,VALID,104,VALID,0,VALID,22.0576,VALID,144,VALID,0.809766,
2012-02-01, 02:55:04,VALID,1009.13,VALID,0,VALID,104,VALID,0,VALID,22.0576,VALID,143,VALID,1.43867,
2012-02-01, 02:56:04,VALID,1009.14,VALID,0,VALID,104,VALID,0,VALID,22.0576,VALID,133,VALID,1.09609,
2012-02-01, 02:57:04,VALID,1009.15,VALID,0,VALID,104,VALID,0.112112,VALID,22.0365,VALID,129,VALID,0.6625,
2012-02-01, 02:58:04,VALID,1009.11,VALID,0,VALID,104,VALID,0,VALID,22.0576,VALID,99,VALID,0.704297,
2012-02-01, 02:59:04,VALID,1009.12,VALID,0,VALID,104,VALID,0,VALID,22.0771,VALID,110,VALID,0.958594,
2012-02-01, 03:00:04,VALID,1009.14,VALID,0,VALID,104,VALID,0,VALID,22.0771,VALID,108,VALID,0.711328,
2012-02-01, 03:01:04,VALID,1009.13,VALID,0,VALID,104,VALID,0,VALID,22.0771,VALID,108,VALID,0.458203,
2012-02-01, 03:02:04,VALID,1009.1,VALID,0,VALID,104,VALID,0,VALID,22.0576,VALID,105,VALID,0.346875,
2012-02-01, 03:03:04,VALID,1009.1,VALID,0,VALID,104,VALID,0,VALID,22.0771,VALID,105,VALID,0.128906,
2012-02-01, 03:04:04,VALID,1009.12,VALID,0,VALID,104,VALID,0.112112,VALID,22.0771,VALID,105,VALID,0.414844,
2012-02-01, 03:05:04,VALID,1009.07,VALID,0,VALID,104,VALID,0,VALID,22.0771,VALID,112,VALID,0.757031,
2012-02-01, 03:06:04,VALID,1009.09,VALID,0,VALID,104,VALID,0,VALID,22.0966,VALID,116,VALID,0.515234,
2012-02-01, 03:07:04,VALID,1009.07,VALID,0,VALID,104,VALID,0,VALID,22.0966,VALID,116,VALID,0.275391,
2012-02-01, 03:08:04,VALID,1009.08,VALID,0,VALID,104,VALID,0,VALID,22.0966,VALID,116,VALID,0.496875,
2012-02-01, 03:09:04,VALID,1009.08,VALID,0,VALID,104,VALID,0.112112,VALID,22.0966,VALID,116,VALID,0,
2012-02-01, 03:10:04,VALID,1009.05,VALID,0,VALID,104,VALID,0,VALID,22.0966,VALID,123,VALID,0.579687,
2012-02-01, 03:11:04,VALID,1009.04,VALID,0,VALID,104,VALID,0,VALID,22.0771,VALID,125,VALID,0.422656,
2012-02-01, 03:12:04,VALID,1009.02,VALID,0,VALID,104,VALID,0,VALID,22.0983,VALID,126,VALID,0.498828,
2012-02-01, 03:13:04,VALID,1009,VALID,0,VALID,104,VALID,0,VALID,22.0771,VALID,84,VALID,0.659766,
2012-02-01, 03:14:04,VALID,1008.98,VALID,0,VALID,104,VALID,0,VALID,22.0771,VALID,101,VALID,0.602734,
2012-02-01, 03:15:04,VALID,1008.96,VALID,0,VALID,104,VALID,0.112112,VALID,22.0771,VALID,104,VALID,0.675781,
2012-02-01, 03:16:04,VALID,1008.94,VALID,0,VALID,104,VALID,0,VALID,22.0983,VALID,104,VALID,0.496484,
2012-02-01, 03:17:04,VALID,1008.95,VALID,0,VALID,104,VALID,0.112112,VALID,22.0966,VALID,106,VALID,0.550781,
2012-02-01, 03:18:04,VALID,1008.95,VALID,0,VALID,104,VALID,0,VALID,22.0966,VALID,126,VALID,1.03906,
2012-02-01, 03:19:04,VALID,1008.92,VALID,0,VALID,104,VALID,0.112112,VALID,22.0949,VALID,101,VALID,0.532812,
2012-02-01, 03:20:04,VALID,1008.91,VALID,0,VALID,104,VALID,0.112112,VALID,22.0966,VALID,105,VALID,0.517187,
2012-02-01, 03:21:04,VALID,1008.93,VALID,0,VALID,104,VALID,0,VALID,22.0966,VALID,89,VALID,0.786328,
2012-02-01, 03:22:04,VALID,1008.9,VALID,0,VALID,104,VALID,0,VALID,22.0771,VALID,93,VALID,0.403516,
2012-02-01, 03:23:04,VALID,1008.9,VALID,0,VALID,104,VALID,0,VALID,22.0771,VALID,95,VALID,0.912109,
2012-02-01, 03:24:04,VALID,1008.92,VALID,0,VALID,104,VALID,0.112112,VALID,22.0771,VALID,89,VALID,0.603906,
2012-02-01, 03:25:04,VALID,1008.95,VALID,0,VALID,104,VALID,0,VALID,22.0771,VALID,130,VALID,1.09766,
2012-02-01, 03:26:04,VALID,1008.92,VALID,0,VALID,104,VALID,0,VALID,22.0754,VALID,152,VALID,0.548437,
2012-02-01, 03:27:04,VALID,1008.92,VALID,0,VALID,104,VALID,0,VALID,22.0771,VALID,152,VALID,0.5875,
2012-02-01, 03:28:04,VALID,1008.92,VALID,0,VALID,104,VALID,0,VALID,22.0576,VALID,152,VALID,0.563672,
2012-02-01, 03:29:04,VALID,1008.93,VALID,0,VALID,104,VALID,0,VALID,22.0382,VALID,152,VALID,0.58125,
2012-02-01, 03:30:04,VALID,1008.95,VALID,0,VALID,104,VALID,0,VALID,22.0382,VALID,152,VALID,0.585547,
2012-02-01, 03:31:04,VALID,1008.95,VALID,0,VALID,104,VALID,0,VALID,22.0187,VALID,150,VALID,0.366797,
2012-02-01, 03:32:04,VALID,1008.95,VALID,0,VALID,104,VALID,0,VALID,21.9992,VALID,150,VALID,0.161719,
2012-02-01, 03:33:04,VALID,1008.96,VALID,0,VALID,104,VALID,0,VALID,21.9992,VALID,150,VALID,0.271875,
2012-02-01, 03:34:04,VALID,1008.99,VALID,0,VALID,104,VALID,0,VALID,22.0187,VALID,150,VALID,0.295703,
2012-02-01, 03:35:04,VALID,1008.97,VALID,0,VALID,104,VALID,0,VALID,22.0398,VALID,150,VALID,0.283984,
2012-02-01, 03:36:04,VALID,1008.97,VALID,0,VALID,104,VALID,0,VALID,21.9992,VALID,150,VALID,0,
2012-02-01, 03:37:04,VALID,1008.98,VALID,0,VALID,104,VALID,0,VALID,21.9992,VALID,150,VALID,0,
2012-02-01, 03:38:04,VALID,1009,VALID,0,VALID,104,VALID,0,VALID,21.9992,VALID,150,VALID,0,
2012-02-01, 03:39:04,VALID,1008.99,VALID,0,VALID,104,VALID,0,VALID,21.9992,VALID,150,VALID,0,
2012-02-01, 03:40:04,VALID,1008.99,VALID,0,VALID,104,VALID,0.112112,VALID,22.0382,VALID,150,VALID,0,
2012-02-01, 03:41:04,VALID,1009.02,VALID,0,VALID,104,VALID,0,VALID,22.0187,VALID,150,VALID,0.090625,
2012-02-01, 03:42:04,VALID,1009,VALID,0,VALID,104,VALID,0,VALID,22.0187,VALID,150,VALID,0.102734,
2012-02-01, 03:43:04,VALID,1009.01,VALID,0,VALID,104,VALID,0,VALID,22.0187,VALID,150,VALID,0,
2012-02-01, 03:44:04,VALID,1009.03,VALID,0,VALID,104,VALID,0.112112,VALID,21.9975,VALID,150,VALID,0.235156,
2012-02-01, 03:45:04,VALID,1009,VALID,0,VALID,104,VALID,0,VALID,22.0187,VALID,150,VALID,0.184375,
2012-02-01, 03:46:04,VALID,1009.01,VALID,0,VALID,104,VALID,0,VALID,22.0593,VALID,150,VALID,0.0558594,
2012-02-01, 03:47:04,VALID,1009.03,VALID,0,VALID,104,VALID,0,VALID,22.0382,VALID,150,VALID,0.240234,
2012-02-01, 03:48:04,VALID,1009.02,VALID,0,VALID,104,VALID,0,VALID,22.0576,VALID,150,VALID,0.498437,
2012-02-01, 03:49:04,VALID,1008.98,VALID,0,VALID,104,VALID,0.112112,VALID,22.0382,VALID,150,VALID,0.349609,
2012-02-01, 03:50:04,VALID,1009.02,VALID,0,VALID,104,VALID,0,VALID,22.0771,VALID,150,VALID,0.435156,
2012-02-01, 03:51:04,VALID,1009.05,VALID,0,VALID,104,VALID,0,VALID,22.0771,VALID,150,VALID,0.0105469,
2012-02-01, 03:52:04,VALID,1009.07,VALID,0,VALID,104,VALID,0,VALID,22.0788,VALID,150,VALID,0,
2012-02-01, 03:53:04,VALID,1009.11,VALID,0,VALID,104,VALID,0,VALID,22.0771,VALID,150,VALID,0,